Location: Banff
(51.1667°N, 115.5667°W)
Time: 10:38:15
(UTC+00:00)

A-11 Canister half - Pass Details

Date: 04 December 2020
Orbit: 1524 x 1684 km, 47.3° (Epoch: 20 January)

Event Time Altitude Azimuth Distance (km) Brightness Sun altitude
Exits shadow 12:59:02 15° 231° (SW) 3,570 10.5 -22.4°
Maximum altitude 13:07:37 58° 158° (SSE) 1,902 9.6 -21.1°
Drops below altitude 10° 13:17:20 10° 83° (E) 3,892 12.2 -19.6°
Sets 13:20:29 0° 80° (E) 4,861 12.9 -19.1°
